Phillipines-OSCAR-101

operational
NORAD ID: 43678 Int'l Des: 2018-084 Owner: DOST/UPD Country: PH
LEOCIRCULARRETROGRADE

Phillipines-OSCAR-101について

説明を読み込み中...

リアルタイム位置

3D地球を読み込み中...

次回通過

高度履歴

Altitude vs Time

uPlot chart will show altitude changes over time

軌道要素

1 43678U 18084H 26063.18528794 .00002778 00000-0 22877-3 0 9993
2 43678 98.1031 254.9962 0011212 143.8581 216.3401 14.99924080400474
Epoch: Mar 4, 2026 • Age: 23 hours

現在のステータス

高度 566.5 km
速度 7.59 km/s
衛星直下点 46.11°N, 58.22°W
打ち上げ日 Oct 29, 2018
運用期間 7.3 years
タイプ other

技術仕様

分類 Payload
質量 56.00 kg
乾燥質量 56.00 kg
総質量 56.00 kg
長さ 0.50 m
直径 0.50 m
スパン 1.50 m
形状 Box+ 2 pan
製造者 UPD/HOKK
バスタイプ Diwata
フェーズステータス In Orbit
所有者/国 DOST/UPD/PH

大規模コンステレーション

Loading constellations...